Location: Eenumerhoogte
(53.3420°N, 6.7843°E)
Time: 07:03:33
(UTC+00:00)

ACS3 Solar Sail - Pass Details

Date: 15 May 2026
Orbit: 883 x 949 km, 97.2° (Epoch: 5 June)

Event Time Altitude Azimuth Distance (km) Brightness Sun altitude
Rises 23:27:22 0° 18° (NNE) 3,507 6.1 -17.6°
Reaches altitude 10° 23:30:05 10° 29° (NNE) 2,559 4.9 -17.6°
Maximum altitude 23:35:04 31° 90° (E) 1,519 2.8 -17.6°
Enters shadow 23:38:17 18° 139° (SE) 2,016 3.1 -17.6°
